EHI
0 0 0 0 0 0 0 0 0 0 0 0 0 0 0 0 0 0 0 0 0 0 0 0 0 0 0 0 0 0 0 0 0 0 0 0 0 0 0 0 0 0 0
0 0 0 0 0 0 0 0 0 0 0 0 0 0 0 0 0 0 0 0 0 0 0 0 0 0 0 0 0 0 0 0 0 0 0 0 0 0 0 0 0 0 0
0 0 0 0 0 0 0 0 0 0 0 0 0 0 0 0 0 0 0 0 0 0 0 0 0 0 0 0 0 0 0 0 0 0 0 0 0 0 0 0 0 0 0
0 0 0 0 0 0 0 0 0 0 0 0 0 0 0 0 0 0 0 0 0 0 0 0 0 0 0 0 0 0 0 0 0 0 0 0 0 0 0 0 0 0 0
0 0 0 0 0 0 0 0 0 0 0 0 0 0 0 0 0 0 0 0 0 0 0 0 0 0 0 0 0 0 0 0 0 0 0 0 0 0 0 0 0 0 0
0 0 0 0 0 0 0 0 0 0 0 0 0 0 0 0 0 0 0 0 0 0 0 0 0 0 0 0 0 0 0 0 0 0 0 0 0 0 0 0 0 0 0
0 0 0 0 0 0 0 0 0 0 0 0 0 0 0 0 0 0 0 0 0 0 0 0 0 0 0 0 0 0 0 0 0 0 0 0 0 0 0 0 0 0 0
0 0 0 0 0 0 0 0 0 0 0 0 0 0 0 0 0 0 0 0 0 0 0 0 0 0 0 0 0 0 0 0 0 0 0 0 0 0 0 0 0 0 0
0 0 0 0 0 0 0 0 0 0 0 0 0 0 0 0 0 0 0 0 0 0 0 0 0 0 0 0 0 0 0 0 0 0 0 0 0 0 0 0 0 0 0
0 0 0 0 0 0 0 0 0 0 0 0 0 0 0 0 0 0 0 0 0 0 0 0 0 0 0 0 0 0 0 0 0 0 0 0 0 0 0 0 0 0 0
0 0 0 0 0 0 0 0 0 0 0 0 0 0 0 0 0 0 0 0 0 0 0 0 0 0 0 0 0 0 0 0 0 0 0 0 0 0 0 0 0 0 0
0 0 0 0 0 0 0 0 0 0 0 0 0 0 0 0 0 0 0 0 0 0 0 0 0 0 0 0 0 0 0 0 0 0 0 0 0 0 0 0 0 0 0
0 0 0 0 0 0 0 0 0 0 0 0 0 0 0 0 0 0 0 0 0 0 0 0 0 0 0 0 0 0 0 0 0 0 0 0 0 0 0 0 0 0 0
0 0 0 0 0 0 0 0 0 0 0 0 0 0 0 0 0 0 0 0 0 0 0 0 0 0 0 0 0 0 0 0 0 0 0 0 0 0 0 0 0 0 0
0 0 0 0 0 0 0 0 0 0 0 0 0 0 0 0 0 0 0 0 0 0 0 0 0 0 0 0 0 0 0 0 0 0 0 0 0 0 0 0 0 0 0
0 0 0 0 0 0 0 0 0 0 0 0 0 0 0 0 0 0 0 0 0 0 0 0 0 0 0 0 0 0 0 0 0 0 0 0 0 0 0 0 0 0 0
0 0 0 0 0 0 0 0 0 0 0 0 0 0 0 0 0 0 0 0 0 0 0 0 0 0 0 0 0 0 0 0 0 0 0 0 0 0 0 0 0 0 0
0 0 0 0 0 0 0 0 0 0 0 0 0 0 0 0 0 0 0 0 0 0 0 0 0 0 0 0 0 0 0 0 0 0 0 0 0 0 0 0 0 0 0
0 0 0 0 0 0 0 0 0 0 0 0 0 0 0 0 0 0 0 0 0 0 0 0 0 0 0 0 0 0 0 0 0 0 0 0 0 0 0 0 0 0 0
0 0 0 0 0 0 0 0 0 0 0 0 0 0 0 0 0 0 0 0 0 0 0 0 0 0 0 0 0 0 0 0 0 0 0 0 0 0 0 0 0 0 0
0 0 0 0 0 0 0 0 0 0 0 0 0 0 0 0 0 0 0 0 0 0 0 0 0 0 0 0 0 0 0 0 0 0 0 0 0 0 0 0 0 0 0
0 0 0 0 0 0 0 0 0 0 0 0 0 0 0 0 0 0 0 0 0 0 0 0 0 0 0 0 0 0 0 0 0 0 0 0 0 0 0 0 0 0 0
0 0 0 0 0 0 0 0 0 0 0 0 0 0 0 0 0 0 0 0 0 0 0 0 0 0 0 0 0 0 0 0 0 0 0 0 0 0 0 0 0 0 0
0 0 0 0 0 0 0 0 0 0 0 0 0 0 0 0 0 0 0 0 0 0 0 0 0 0 0 0 0 0 0 0 0 0 0 0 0 0 0 0 0 0 0
0 0 0 0 0 0 0 0 0 0 0 0 0 0 0 0 0 0 0 0 0 0 0 0 0 0 0 0 0 0 0 0 0 0 0 0 0 0 0 0 0 0 0
0 0 0 0 0 0 0 0 0 0 0 0 0 0 0 0 0 0 0 0 0 0 0 0 0 0 0 0 0 0 0 0 0 0 0 0 0 0 0 0 0 0 0
Wind_Speed
17 16 16 15 16 15 13 15 16 16 17 18 19 17 15 10 6 5 6 4 7 7 6 7 5 3 4 3 1 1 2 3 3 3 2 1 2 3 2 2 3 3 5
16 16 15 15 16 15 14 16 17 15 17 18 17 11 5 2 2 2 3 4 5 7 6 6 5 7 6 5 3 2 0 2 4 4 3 2 2 3 4 4 3 4 3
16 15 15 15 16 16 16 16 16 16 18 18 14 10 11 9 6 6 6 7 9 8 7 7 7 7 2 1 3 3 2 1 2 3 3 2 2 1 2 2 2 2 1
15 15 15 15 15 15 15 16 16 16 17 17 16 13 12 11 11 10 10 10 10 9 8 8 7 6 5 3 3 3 3 2 1 1 2 1 0 1 1 2 3 2 3
15 15 14 14 14 14 14 15 16 15 14 15 16 14 11 10 12 13 12 11 11 10 9 9 9 11 11 8 6 5 5 4 2 1 1 1 2 2 1 1 2 2 3
15 15 15 14 14 14 14 14 15 14 12 11 13 15 14 11 18 20 14 10 11 11 9 8 9 11 12 12 12 10 9 6 3 3 2 2 3 3 2 2 2 2 2
14 15 15 15 14 14 14 14 14 14 12 8 9 11 13 13 18 18 15 9 9 8 7 6 6 7 7 6 7 10 12 14 11 7 5 5 4 4 3 2 2 1 2
14 15 15 14 14 14 14 14 14 13 12 9 7 9 10 13 15 13 13 8 6 6 6 6 7 7 7 9 5 8 9 9 10 8 6 4 2 3 3 2 2 2 4
14 15 15 14 13 13 14 14 13 12 11 10 8 7 9 12 14 13 10 5 5 6 6 6 6 6 10 12 7 6 7 7 10 11 10 11 11 9 3 2 2 2 2
15 15 14 13 12 11 12 12 12 11 11 10 8 8 11 11 14 11 8 4 4 4 5 7 9 7 9 11 6 4 7 6 6 7 10 13 12 13 15 9 4 2 2
14 14 14 13 12 11 11 10 10 10 10 10 9 10 10 12 15 15 9 3 2 2 2 3 4 7 9 10 8 6 9 7 6 6 6 7 6 6 7 7 6 4 3
13 14 13 13 11 10 11 11 10 9 9 8 7 7 7 9 13 16 17 11 3 1 1 1 3 8 9 10 11 13 12 8 5 5 6 6 6 6 6 5 6 5 4
13 13 12 12 11 11 11 11 9 9 8 7 7 7 6 7 9 15 17 18 13 2 1 1 4 8 9 9 13 13 10 7 6 6 6 6 5 5 5 5 5 5 4
12 11 11 10 12 10 9 9 9 9 8 8 8 7 6 6 6 6 6 6 8 4 1 3 4 6 7 8 8 7 6 5 6 5 5 4 4 5 5 5 5 5 3
11 10 9 8 8 8 8 9 9 10 12 10 8 7 7 8 11 13 9 7 4 2 4 2 3 3 3 3 4 4 4 4 5 5 4 4 5 5 5 5 4 4 3
10 10 9 8 6 7 7 8 13 17 20 19 19 14 10 14 17 17 16 19 13 3 4 3 4 3 2 2 2 3 3 3 3 3 3 3 3 3 3 2 3 3 2
9 10 9 9 6 7 7 7 7 11 16 18 18 18 17 16 16 15 14 15 15 11 5 3 2 1 1 1 1 1 1 1 1 0 1 0 1 2 3 3 3 2 3
10 12 10 7 6 6 6 7 7 7 7 9 13 15 16 16 16 15 14 10 7 6 3 2 2 1 1 2 2 2 2 2 2 2 2 2 2 2 2 2 3 3 4
11 9 9 8 7 8 7 7 7 6 5 5 8 10 12 12 11 11 9 4 2 2 2 1 2 2 2 2 2 3 3 3 3 3 3 3 3 3 3 3 4 6 5
11 16 16 10 9 9 7 7 7 6 6 5 5 5 6 5 3 1 1 1 2 2 3 3 3 3 3 3 3 3 3 4 3 3 4 4 4 4 4 4 4 4 4
11 13 18 12 9 9 9 8 8 7 7 6 6 8 12 6 3 2 2 3 3 4 4 4 4 4 4 3 4 4 4 4 4 4 4 4 4 4 5 5 5 5 5
12 13 13 10 9 9 10 9 8 8 8 8 7 8 13 6 2 3 4 4 4 4 4 4 4 4 4 4 4 4 5 5 5 5 5 5 5 5 5 5 5 5 6
12 12 12 11 10 12 12 10 9 9 9 8 7 7 6 5 4 4 4 4 4 4 4 3 4 4 4 4 5 5 5 6 6 6 5 6 6 6 6 6 7 7 8
11 12 12 12 12 12 11 10 9 11 10 8 7 7 6 5 4 5 4 4 4 4 4 3 4 5 5 5 4 4 5 7 7 8 9 8 9 10 9 9 10 11 10
12 12 12 12 12 12 12 12 10 9 8 8 8 7 6 5 4 4 4 4 4 4 4 3 4 5 6 7 6 7 11 16 15 12 10 10 12 13 12 12 12 11 11
13 13 13 13 12 12 12 11 10 8 6 6 6 5 5 4 3 4 4 3 3 4 4 4 5 6 6 6 9 13 16 19 20 18 10 5 7 8 8 9 12 11 12
Wind_Direction
343 340 340 339 333 325 321 321 320 312 309 305 299 294 273 241 216 171 150 151 113 102 92 94 86 32 3 6 13 196 186 158 181 227 252 266 187 173 159 169 163 149 170
340 339 340 337 333 331 332 333 330 323 317 306 303 324 315 237 173 165 143 128 111 107 98 92 80 67 24 346 8 25 85 193 175 208 234 226 221 197 168 183 185 166 179
335 337 338 337 334 334 340 337 336 337 332 327 328 11 30 22 36 48 51 61 64 65 69 81 79 93 153 1 32 32 31 18 183 185 219 222 256 12 103 91 71 88 191
333 334 336 337 335 334 339 338 338 341 343 344 352 21 35 32 33 38 43 47 56 57 58 63 74 96 112 96 61 34 32 41 43 157 143 121 50 358 53 105 109 74 38
336 335 333 335 334 332 336 337 337 340 345 349 359 10 28 42 49 47 43 40 42 40 37 36 42 52 64 73 73 53 41 34 32 34 73 93 65 41 65 114 133 128 72
339 336 335 336 337 337 336 335 339 338 343 354 3 6 10 28 46 52 54 46 43 36 28 24 31 37 36 39 50 57 58 55 47 45 26 51 66 45 13 42 102 157 147
339 337 336 337 337 338 339 340 341 342 338 357 10 8 2 9 36 45 54 55 56 49 36 24 26 22 39 29 41 63 58 57 60 54 49 35 27 23 15 57 76 32 89
340 340 339 338 338 339 341 342 341 343 346 354 13 15 5 358 21 49 57 59 60 54 42 30 23 6 24 29 27 69 67 63 59 57 60 49 47 11 11 5 55 74 85
342 340 338 339 339 344 345 342 344 345 347 347 5 8 16 354 12 44 60 49 47 44 33 22 33 2 31 40 36 62 64 44 53 57 69 70 66 61 59 48 27 57 93
341 338 336 338 337 344 344 342 343 347 348 352 6 8 14 356 1 25 49 47 44 40 30 17 16 22 41 57 44 43 64 43 49 63 62 60 52 48 48 50 30 55 98
336 336 338 340 339 350 344 340 339 344 347 351 6 7 4 1 352 358 27 46 52 58 37 9 345 26 40 45 49 46 54 43 53 70 66 57 49 44 40 38 35 37 45
335 337 340 339 345 350 343 341 340 346 344 340 351 2 353 350 351 349 359 9 27 69 64 346 354 45 42 46 53 48 46 44 45 64 64 52 43 41 38 33 31 32 31
336 338 339 341 351 346 344 343 347 352 347 345 349 352 339 334 332 340 346 353 357 14 182 140 50 58 56 43 50 48 43 38 45 56 55 44 29 34 40 21 16 17 23
335 335 337 349 354 344 344 343 348 348 347 352 349 341 330 316 308 307 308 322 341 353 5 51 64 79 70 58 51 45 38 44 54 52 45 29 26 22 30 15 3 7 11
333 332 333 350 343 335 339 342 347 344 350 350 339 334 328 320 317 325 336 320 286 228 128 100 81 75 70 61 59 51 45 46 46 45 42 30 28 17 12 9 1 359 359
330 330 331 343 332 332 328 332 342 348 350 351 342 337 331 323 333 347 357 359 347 112 104 104 95 83 67 47 36 43 40 48 41 33 41 25 19 356 340 352 350 338 317
319 319 327 329 321 322 322 324 325 330 338 342 345 344 339 338 346 350 7 18 29 50 53 58 62 84 139 176 186 189 205 191 171 139 148 231 297 321 343 334 328 325 305
307 314 315 304 299 303 308 311 308 311 316 318 330 339 342 352 3 1 17 22 24 38 33 28 -0 322 263 229 218 216 228 236 227 211 217 231 245 257 265 268 285 277 283
305 299 296 293 286 295 299 293 292 288 286 291 309 324 336 344 5 11 17 18 9 3 354 359 344 327 298 269 254 239 229 239 246 225 230 232 238 237 252 259 264 290 298
297 296 298 290 286 288 278 271 272 272 273 270 272 283 295 305 299 314 306 271 271 272 283 288 290 284 283 274 266 256 249 259 259 235 243 244 242 235 240 252 249 254 258
291 291 294 289 287 288 284 277 272 266 262 262 262 267 282 273 228 254 261 253 242 244 248 252 262 267 269 261 255 255 249 250 249 245 247 244 236 235 238 235 240 242 248
292 293 294 289 289 286 281 272 263 262 263 267 270 273 283 282 261 261 259 258 255 244 235 231 243 243 240 244 250 248 246 246 246 243 243 243 234 233 237 241 242 239 244
303 302 303 301 296 294 290 280 269 259 253 252 260 268 269 259 251 252 254 259 261 260 253 236 247 256 254 239 228 225 236 246 244 238 237 243 242 239 233 235 238 240 241
319 315 311 307 303 300 293 285 272 267 263 253 245 246 256 252 238 250 258 262 266 270 264 253 262 260 264 264 256 240 233 244 238 234 235 238 243 247 244 241 240 238 239
324 319 316 311 308 304 298 290 279 266 256 250 248 244 243 244 227 234 247 259 268 277 270 263 272 273 277 281 278 272 272 275 268 256 242 238 242 241 238 240 244 245 242
327 325 323 319 317 313 308 303 294 279 257 246 242 230 232 233 226 237 252 266 272 275 267 270 281 282 281 281 285 289 291 290 287 286 283 260 262 259 250 245 244 242 241